BEIDOU-2 G5

Last updated on Thu Oct 30 2025 00:02:49 GMT+0000 (Coordinated Universal Time)

1 38091U 12008A 25302.56727105 .00000069 00000+0 00000+0 0 9990 2 38091 2.9943 70.8419 0009749 221.3878 8.8436 1.00272213 50056
UTC large
Height (km)
Speed (km/s)
/
Latitude / Longitude
Inclination (degrees)
Orbital Period (minutes)
Azimuth
Elevation
Range (km)
Doppler Factor

Next 0 passes for location: London (51.5072 / 0.1276)

Sorry there are no passes over London.